Location: Lynch Observatory
(39.9540°N, 75.1861°W)
Time: 23:55:23
(UTC-04:00)

ZACube-1 - Pass Details

Date: 03 May 2024
Orbit: 566 x 635 km, 97.7° (Epoch: 27 May)

Event Time Altitude Azimuth Distance (km) Brightness Sun altitude
Rises 03:40:15 0° 16° (NNE) 2,943 ? -22.6°
Reaches altitude 10° 03:42:31 10° 21° (NNE) 2,032 ? -22.3°
Maximum altitude 03:46:53 56° 100° (E) 759 ? -21.7°
Enters shadow 03:48:31 35° 161° (SSE) 1,036 ? -21.5°
